Date,TemperatureHighF,TemperatureAvgF,TemperatureLowF,DewpointHighF,DewpointAvgF,DewpointLowF,HumidityHigh,HumidityAvg,HumidityLow,PressureMaxIn,PressureMinIn,WindSpeedMaxMPH,WindSpeedAvgMPH,GustSpeedMaxMPH,PrecipitationSumIn
2013-2-1,41.2,34.8,27.1,30.6,19.7,10.8,82,56,29,30.18,29.90,29,18,29,0.00
2013-2-2,45.3,33.7,22.1,35.5,22.8,14.2,88,66,32,30.17,29.93,30,6,30,0.36
2013-2-3,50.7,40.4,32.7,40.2,32.7,27.1,91,75,47,29.93,29.80,36,17,36,0.02
2013-2-4,47.5,37.7,29.5,32.6,29.2,24.7,84,72,53,29.95,29.84,9,4,9,0.00
2013-2-5,54.3,43.7,32.4,45.5,37.3,27.7,87,78,68,29.87,29.79,21,6,21,0.00
2013-2-6,64.2,47.6,36.3,44.2,36.1,31.8,92,68,35,30.00,29.86,9,4,9,0.00
2013-2-7,46.9,43.7,38.5,44.7,39.3,31.8,92,85,72,30.00,29.78,26,15,26,0.24
2013-2-8,54.7,47.2,38.1,49.1,42.1,31.5,93,83,56,29.99,29.75,26,10,26,0.02
2013-2-9,57.7,41.8,30.0,36.4,30.3,26.3,88,67,35,30.11,29.96,8,4,8,0.02
2013-2-10,55.2,44.9,36.0,45.0,37.9,29.1,93,77,54,30.17,29.95,24,12,24,0.02
2013-2-11,54.7,50.4,46.8,53.3,48.8,44.8,96,94,93,29.96,29.88,12,6,12,0.12
2013-2-12,54.5,47.7,43.5,47.1,42.6,38.2,94,83,54,29.93,29.70,24,6,24,0.02
2013-2-13,49.8,44.3,37.0,47.1,41.3,33.5,95,89,81,29.78,29.58,32,14,32,0.00
2013-2-14,54.7,41.2,31.8,38.8,33.6,29.2,92,76,49,29.90,29.77,12,5,12,0.00
2013-2-15,58.8,44.0,30.9,43.0,34.0,27.5,91,70,43,29.94,29.80,26,9,26,0.00
2013-2-16,43.0,37.3,29.7,33.9,24.3,14.7,78,61,37,29.94,29.77,37,17,37,0.00
2013-2-17,43.9,33.1,24.4,18.1,15.4,12.8,63,49,30,30.10,29.93,29,13,29,0.00
2013-2-18,55.6,39.1,23.7,31.0,24.4,16.0,78,57,38,30.18,29.97,21,5,21,0.00
2013-2-19,52.7,42.9,36.0,44.0,33.2,25.3,90,70,45,29.97,29.81,37,11,37,0.43
2013-2-20,54.1,39.5,28.0,25.3,20.7,14.7,73,50,21,29.98,29.91,26,11,26,0.00
2013-2-21,42.1,33.4,29.8,26.4,21.4,19.7,71,61,48,30.02,29.92,12,7,12,0.00
2013-2-25,50.5,45.4,38.5,36.1,32.9,28.8,87,63,51,29.89,29.72,34,23,34,0.00
2013-2-26,43.9,40.7,36.3,41.4,38.0,33.9,93,90,83,29.73,29.43,40,16,40,0.02
2013-2-27,55.2,45.9,39.7,38.5,35.9,33.4,83,69,50,29.71,29.59,36,22,36,0.00
2013-2-28,47.1,41.3,36.1,36.3,29.5,25.7,70,63,52,29.80,29.66,30,21,30,0.00